Station PTIT2 - 8779770 - Port Isabel, TX Image indicating link to RSS feed of recent meteorological observations for station PTIT2


Conditions at PTIT2 as of
(9:48 am CDT)
1448 GMT on 04/15/2024:
     

Click on the graph icon in the table below to see a time series plot of the last five days of that observation.

5-day plot - Wind Direction Wind Direction (WDIR):SSE ( 150 deg true )
5-day plot - Wind Speed Wind Speed (WSPD): 17.1 kts
5-day plot - Wind Gust Wind Gust (GST): 21.0 kts
5-day plot - Atmospheric Pressure Atmospheric Pressure (PRES):29.87 in
5-day plot - Air Temperature Air Temperature (ATMP): 76.6 °F
5-day plot - Water Temperature Water Temperature (WTMP): 74.3 °F
5-day plot - Wind Speed at 10 Meters Wind Speed at 10 meters (WSPD10M): 17.5 kts
5-day plot - Wind Speed at 20 Meters Wind Speed at 20 meters (WSPD20M): 19.4 kts
5-day plot -  Wind Speed, Wind Gust and Atmospheric Pressure Combined plot of Wind Speed, Gust, and Air Pressure
NOS Water Level Observation Network Water Level
Previous observations
TIME
(CDT)
5-day plot - Wind Direction
WDIR
 
5-day plot - Wind Speed
WSPD
kts
5-day plot - Wind Gust
GST
kts
5-day plot - Wave Height
WVHT
ft
5-day plot - Dominant Wave Period
DPD
sec
5-day plot - Average Wave Period
APD
sec
5-day plot - Mean Wave Direction
MWD
 
5-day plot - Atmospheric Pressure
PRES
in
5-day plot - Pressure Tendency
PTDY
in
5-day plot - Air Temperature
ATMP
°F
5-day plot - Water Temperature
WTMP
°F
5-day plot - Dew Point
DEWP
°F
5-day plot - Salinity
SAL
psu
5-day plot - Visibility
VIS
nmi
5-day plot - Tide (above MLLW)
TIDE
ft
2024-04-15 09:42 amSSE 17.1 22.0----29.87- 76.8 74.3----
2024-04-15 09:36 amSSE 18.1 22.9----29.87- 76.3 74.1----
2024-04-15 09:30 amSSE 18.1 21.0----29.87-- 74.1----
2024-04-15 09:24 amSSE 15.9 20.0----29.87-- 74.1----
2024-04-15 09:18 amSSE 15.9 21.0----29.87- 76.1 74.1----
2024-04-15 09:12 amSSE 17.1 19.0----29.87- 75.7 74.1----
2024-04-15 09:06 amSSE 15.9 20.0----29.86- 75.6 74.1----
2024-04-15 09:00 amSSE 15.0 18.1----29.86+0.03 75.6 74.1----
2024-04-15 08:54 amSSE 15.9 19.0----29.86- 75.4 74.1----
2024-04-15 08:48 amSSE 15.0 19.0----29.86- 75.2 74.1----
2024-04-15 08:42 amSSE 14.0 19.0----29.86- 75.0 74.1----
2024-04-15 08:36 amSSE 14.0 18.1----29.86- 74.8 74.1----
2024-04-15 08:30 amSSE 15.0 18.1----29.86- 74.7 74.1----
2024-04-15 08:24 amSSE 15.0 18.1----29.86- 74.5 74.1----
2024-04-15 08:18 amSSE 12.0 17.1----29.86- 74.1 74.1----
2024-04-15 08:12 amSSE 12.0 17.1----29.86- 74.1 73.9----
2024-04-15 08:06 amSSE 12.0 15.0----29.86- 73.9 73.9----
2024-04-15 08:00 amSSE 12.0 15.0----29.86+0.02 73.9 73.9----
2024-04-15 07:54 amSSE 11.1 17.1----29.86- 73.8 73.9----
2024-04-15 07:48 amSSE 12.0 15.0----29.86- 73.8 73.9----
2024-04-15 07:42 amSSE 12.0 15.9----29.85- 73.8 73.9----
2024-04-15 07:36 amSSE 13.0 17.1----29.85- 73.6 73.9----
2024-04-15 07:30 amSSE 13.0 17.1----29.85- 73.6 73.9----
2024-04-15 07:24 amSSE 12.0 15.9----29.85- 73.4 73.9----
2024-04-15 07:18 amSSE 12.0 15.0----29.85- 73.4 73.9----
2024-04-15 07:12 amSSE 13.0 15.9----29.85- 73.4 73.9----
2024-04-15 07:06 amSSE 13.0 15.9----29.85- 73.4 73.8----
2024-04-15 07:00 amSSE 14.0 18.1----29.84+0.00 73.4 73.8----
2024-04-15 06:54 amSSE 12.0 15.9----29.84- 73.4 73.8----
2024-04-15 06:48 amSSE 13.0 18.1----29.84- 73.4 73.8----
2024-04-15 06:42 amSSE 12.0 15.9----29.84- 73.4 73.8----
2024-04-15 06:36 amSSE 13.0 17.1----29.84- 73.4 73.8----
2024-04-15 06:30 amSSE 13.0 17.1----29.84- 73.4 73.8----
2024-04-15 06:24 amSSE 12.0 15.9----29.83- 73.4 73.8----
2024-04-15 06:18 amSSE 13.0 15.9----29.83- 73.4 73.8----
2024-04-15 06:12 amSSE 13.0 15.9----29.83- 73.4 73.8----
2024-04-15 06:06 amSSE 12.0 17.1----29.83- 73.4 73.8----
2024-04-15 06:00 amSSE 12.0 15.9----29.83-0.03 73.4 73.8----
2024-04-15 05:54 amSSE 13.0 15.0----29.83- 73.4 73.8----
2024-04-15 05:48 amSSE 13.0 15.9----29.83- 73.6 73.8----
2024-04-15 05:42 amSSE 12.0 15.0----29.83- 73.6 73.8----
2024-04-15 05:36 amSSE 12.0 15.0----29.83- 73.6 73.8----
2024-04-15 05:30 amSSE 13.0 15.9----29.83- 73.6 73.8----
2024-04-15 05:24 amSSE 12.0 15.0----29.83- 73.6 73.8----
2024-04-15 05:18 amSSE 12.0 17.1----29.84- 73.6 73.8----
2024-04-15 05:12 amSSE 12.0 14.0----29.84- 73.4 73.8----
2024-04-15 05:06 amSSE 12.0 14.0----29.84- 73.4 73.8----
2024-04-15 05:00 amSSE 12.0 15.9----29.84-0.05 73.6 73.8----
2024-04-15 04:54 amSSE 12.0 14.0----29.84- 73.4 73.8----
2024-04-15 04:48 amSSE 11.1 14.0----29.84- 73.4 73.8----
2024-04-15 04:42 amSSE 12.0 15.0----29.84- 73.4 73.8----
2024-04-15 04:36 amSSE 11.1 14.0----29.84- 73.4 73.8----
2024-04-15 04:30 amSSE 12.0 14.0----29.84- 73.4 73.8----
2024-04-15 04:24 amSSE 13.0 15.0----29.84- 73.4 73.8----
2024-04-15 04:18 amSSE 12.0 15.9----29.84- 73.4 73.8----
2024-04-15 04:12 amSSE 12.0 14.0----29.84- 73.4 73.8----
2024-04-15 04:06 amSSE 12.0 15.0----29.85- 73.6 73.9----
2024-04-15 04:00 amSSE 13.0 15.9----29.85-0.06 73.6 73.9----
2024-04-15 03:54 amSSE 13.0 15.9----29.85- 73.6 73.9----
2024-04-15 03:48 amSSE 13.0 17.1----29.85- 73.4 73.9----
2024-04-15 03:42 amSSE 13.0 18.1----29.85- 73.4 73.9----
2024-04-15 03:36 amSSE 13.0 17.1----29.85- 73.4 73.9----
2024-04-15 03:30 amSSE 14.0 18.1----29.85- 73.4 73.9----
2024-04-15 03:24 amSSE 13.0 15.9----29.85- 73.4 73.9----
2024-04-15 03:18 amSSE 13.0 15.9----29.86- 73.4 73.9----
2024-04-15 03:12 amSSE 15.0 18.1----29.86- 73.6 73.9----
2024-04-15 03:06 amSSE 14.0 18.1----29.86- 73.4 73.9----
2024-04-15 03:00 amSSE 14.0 19.0----29.86-0.06 73.4 73.9----
2024-04-15 02:54 amSSE 14.0 18.1----29.87- 73.6 73.9----
2024-04-15 02:48 amSSE 15.9 19.0----29.87- 73.6 73.9----
2024-04-15 02:42 amSSE 14.0 18.1----29.87- 73.6 73.9----
2024-04-15 02:36 amSSE 14.0 17.1----29.88- 73.6 73.9----
2024-04-15 02:30 amSSE 14.0 19.0----29.88- 73.6 73.9----
2024-04-15 02:24 amSSE 14.0 19.0----29.88- 73.8 73.9----
2024-04-15 02:18 amSSE 14.0 18.1----29.88- 73.8 74.1----
2024-04-15 02:12 amSSE 15.0 19.0----29.88- 73.8 74.1----
2024-04-15 02:06 amSSE 15.0 19.0----29.89- 73.9 74.1----
2024-04-15 02:00 amSSE 15.9 20.0----29.89-0.05 73.9 74.1----
2024-04-15 01:54 amSSE 15.0 19.0----29.89- 73.8 74.1----
2024-04-15 01:48 amSSE 13.0 19.0----29.89- 73.8 74.1----
2024-04-15 01:42 amSSE 15.9 19.0----29.89- 73.9 74.1----
2024-04-15 01:36 amSSE 13.0 18.1----29.90- 73.9 74.1----
2024-04-15 01:30 amSSE 14.0 20.0----29.90- 73.9 74.1----
2024-04-15 01:24 amSSE 14.0 20.0----29.90- 73.9 74.1----
2024-04-15 01:18 amSSE 13.0 19.0----29.90- 73.9 74.1----
2024-04-15 01:12 amSSE 15.9 21.0----29.90- 74.1 74.1----
2024-04-15 01:06 amSSE 14.0 22.0----29.91- 74.1 74.1----
2024-04-15 01:00 amSSE 17.1 22.0----29.91-0.02 74.1 74.1----
2024-04-15 12:54 amSSE 14.0 21.0----29.91- 74.1 74.1----
2024-04-15 12:48 amSSE 15.9 19.0----29.91- 73.9 74.1----
2024-04-15 12:42 amSSE 13.0 18.1----29.91- 73.8 74.1----
2024-04-15 12:36 amSSE 17.1 20.0----29.91- 73.8 74.1----
2024-04-15 12:30 amSSE 15.0 20.0----29.92- 73.6 74.1----
2024-04-15 12:24 amSSE 14.0 18.1----29.92- 73.6 74.1----
2024-04-15 12:18 amSSE 14.0 18.1----29.92- 73.4 74.3----
2024-04-15 12:12 amSSE 12.0 18.1----29.92- 73.4 74.3----
2024-04-15 12:06 amSSE 13.0 17.1----29.92- 73.4 74.3----
2024-04-15 12:00 amSSE 14.0 18.1----29.92+0.00 73.4 74.3----
2024-04-14 11:54 pmSSE 14.0 18.1----29.92- 73.2 74.3----
2024-04-14 11:48 pmSSE 14.0 17.1----29.92- 73.2 74.3----
2024-04-14 11:42 pm SE 14.0 17.1----29.93- 73.2 74.3----
2024-04-14 11:36 pmSSE 13.0 15.9----29.93- 73.2 74.3----
2024-04-14 11:30 pm SE 14.0 15.9----29.93- 73.2 74.3----
2024-04-14 11:24 pm SE 13.0 15.9----29.93- 73.2 74.3----
2024-04-14 11:18 pm SE 13.0 19.0----29.93- 73.2 74.3----
2024-04-14 11:12 pm SE 14.0 15.9----29.93- 73.2 74.3----
2024-04-14 11:06 pm SE 13.0 15.9----29.93- 73.4 74.3----
2024-04-14 11:00 pm SE 14.0 15.9----29.93+0.02 73.4 74.3----
2024-04-14 10:54 pm SE 13.0 15.9----29.93- 73.4 74.3----
2024-04-14 10:48 pm SE 12.0 15.9----29.93- 73.4 74.3----
2024-04-14 10:42 pm SE 13.0 15.9----29.93- 73.4 74.5----
2024-04-14 10:36 pm SE 12.0 17.1----29.93- 73.4 74.5----
2024-04-14 10:30 pm SE 13.0 15.9----29.93- 73.4 74.5----
2024-04-14 10:24 pm SE 13.0 17.1----29.93- 73.2 74.5----
2024-04-14 10:18 pm SE 13.0 15.9----29.93- 73.4 74.5----
2024-04-14 10:12 pm SE 13.0 15.9----29.93- 73.4 74.5----
2024-04-14 10:06 pm SE 14.0 17.1----29.93- 73.4 74.5----
2024-04-14 10:00 pm SE 13.0 17.1----29.93+0.02 73.4 74.5----
2024-04-14 09:54 pm SE 13.0 19.0----29.93- 73.6 74.5----
2024-04-14 09:48 pm SE 14.0 18.1----29.93- 73.6 74.5----
2024-04-14 09:42 pm SE 14.0 19.0----29.93- 73.6 74.5----
2024-04-14 09:36 pm SE 15.0 20.0----29.93- 73.8 74.5----
2024-04-14 09:30 pm SE 15.0 19.0----29.92- 73.8 74.5----
2024-04-14 09:24 pm SE 15.0 21.0----29.92- 73.8 74.5----
2024-04-14 09:18 pm SE 17.1 21.0----29.92- 73.8 74.5----
2024-04-14 09:12 pm SE 14.0 19.0----29.92- 73.9 74.5----
2024-04-14 09:06 pm SE 15.9 20.0----29.92- 73.9 74.5----
2024-04-14 09:00 pm SE 15.9 20.0----29.92+0.00 73.8 74.5----
2024-04-14 08:54 pm SE 15.9 19.0----29.92- 73.9 74.7----
2024-04-14 08:48 pm SE 15.9 20.0----29.92- 73.9 74.7----
2024-04-14 08:42 pm SE 15.0 19.0----29.92- 73.9 74.7----
2024-04-14 08:36 pm SE 15.0 19.0----29.92- 73.9 74.7----
2024-04-14 08:30 pm SE 15.9 21.0----29.92- 73.8 74.7----
2024-04-14 08:24 pm SE 15.9 20.0----29.91- 73.8 74.7----
2024-04-14 08:18 pm SE 15.9 21.0----29.91- 73.8 74.7----
2024-04-14 08:12 pm SE 15.9 20.0----29.91- 73.8 74.7----
2024-04-14 08:06 pm SE 14.0 18.1----29.91- 73.9 74.7----
2024-04-14 08:00 pm SE 15.0 19.0----29.91+0.00 73.9 74.7----
2024-04-14 07:54 pm SE 15.0 18.1----29.91- 73.9 74.7----
2024-04-14 07:48 pm SE 15.0 19.0----29.91-- 74.7----
2024-04-14 07:42 pm SE 15.0 20.0----29.91-- 74.7----
2024-04-14 07:36 pm SE 15.0 21.0----29.91-- 74.7----
2024-04-14 07:30 pm-------29.91- 74.1 74.7----
2024-04-14 07:24 pm-------29.91- 74.1 74.7----
2024-04-14 07:18 pm SE 17.1 21.0------ 74.3 74.7----
2024-04-14 07:12 pm SE 17.1 20.0------ 74.3 74.7----
2024-04-14 07:06 pm SE 15.9 21.0------ 74.5 74.8----
2024-04-14 07:00 pm SE 15.9 20.0----29.91-0.02 74.5 74.8----
2024-04-14 06:54 pm SE 15.9 20.0----29.91- 74.7 74.8----
2024-04-14 06:48 pm SE 17.1 20.0----29.91- 74.7 74.8----
2024-04-14 06:42 pm SE 17.1 22.0----29.91- 74.7 74.8----
2024-04-14 06:36 pm SE 15.9 20.0----29.91- 74.8 74.8----
2024-04-14 06:30 pm SE 14.0 21.0----29.91- 74.8 74.8----
2024-04-14 06:24 pm SE 17.1 22.9----29.91- 74.8 74.8----
2024-04-14 06:18 pm SE 15.0 21.0----29.91- 75.0 74.8----
2024-04-14 06:00 pm SE 18.1 22.0----29.91-0.04- 74.8----
2024-04-14 05:54 pm SE 15.0 20.0----29.91-- 74.8----
2024-04-14 05:48 pm SE 15.9 20.0----29.91- 75.2 74.8----
2024-04-14 05:42 pm SE 18.1 22.9----29.91- 75.2 74.8----
2024-04-14 05:36 pm SE 17.1 21.0----29.91- 75.6 74.8----
2024-04-14 05:30 pm SE 15.9 20.0----29.91- 75.6 74.7----
2024-04-14 05:24 pm SE 15.9 20.0----29.91- 75.7 74.7----
2024-04-14 05:18 pm SE 17.1 22.9----29.91- 75.6 74.7----
2024-04-14 05:12 pm SE 19.0 22.9----29.92- 75.6 74.7----
2024-04-14 05:06 pm SE 17.1 22.0----29.92- 75.9 74.7----
2024-04-14 05:00 pm SE 15.9 21.0----29.92-0.06 76.1 74.7----
2024-04-14 04:54 pm SE 17.1 20.0----29.92- 76.1 74.7----
2024-04-14 04:48 pm SE 18.1 22.9----29.92-- 74.7----
2024-04-14 04:42 pm SE 18.1 22.9----29.93-- 74.7----
2024-04-14 04:36 pm SE 15.9 21.0----29.93-- 74.7----
2024-04-14 04:30 pm SE 18.1 22.0----29.92-- 74.7----
2024-04-14 04:24 pm SE 18.1 22.9----29.93-- 74.7----
2024-04-14 04:18 pm SE 18.1 22.9----29.93- 76.5 74.5----
2024-04-14 04:12 pm SE 19.0 22.0----29.93- 76.6 74.5----
2024-04-14 04:06 pm SE 17.1 24.1----29.93- 76.6 74.5----
2024-04-14 04:00 pm SE 15.0 21.0----29.93-0.07 76.5 74.5----
2024-04-14 03:54 pm SE 15.0 21.0----29.93- 76.6 74.5----
2024-04-14 03:48 pm SE 14.0 20.0----29.94- 77.0 74.5----
2024-04-14 03:42 pm SE 15.0 20.0----29.94- 77.0 74.5----
2024-04-14 03:36 pm SE 15.0 21.0----29.94- 77.0 74.5----
2024-04-14 03:30 pmSSE 17.1 22.0----29.95- 78.3 74.5----
2024-04-14 03:24 pm SE 17.1 22.0----29.95- 77.0 74.3----
2024-04-14 03:18 pm SE 15.9 21.0----29.95- 77.2 74.3----
2024-04-14 03:12 pm SE 17.1 21.0----29.95- 77.0 74.3----
2024-04-14 03:06 pmSSE 19.0 24.1----29.96- 77.2 74.3----
2024-04-14 03:00 pmSSE 19.0 24.1----29.96-0.06 77.5 74.3----
2024-04-14 02:54 pmSSE 18.1 22.0----29.96- 77.0 74.3----
2024-04-14 02:48 pm SE 19.0 24.1----29.97- 76.3 74.3----
2024-04-14 02:42 pm SE 20.0 24.1----29.97- 76.6 74.3----
2024-04-14 02:36 pm SE 19.0 24.1----29.97- 77.0 74.3----
2024-04-14 02:30 pm SE 19.0 25.1----29.97- 76.6 74.3----
2024-04-14 02:24 pm SE 20.0 22.9----29.97- 76.8 74.3----
2024-04-14 02:18 pm SE 19.0 22.9----29.98- 76.8 74.3----
2024-04-14 02:12 pm SE 19.0 22.0----29.98- 76.8 74.3----
2024-04-14 02:06 pm SE 20.0 24.1----29.98- 76.8 74.3----
2024-04-14 02:00 pm SE 19.0 22.0----29.98-0.04------
2024-04-14 01:54 pm SE 20.0 22.9----29.98-------
2024-04-14 01:48 pm SE 21.0 25.1----29.98- 76.8 74.3----
2024-04-14 01:42 pm SE 20.0 24.1----29.98- 76.8 74.3----
2024-04-14 01:36 pmSSE 17.1 24.1----29.99- 77.0 74.3----
2024-04-14 01:30 pm SE 19.0 25.1----29.99- 77.0 74.1----
2024-04-14 01:24 pm SE 18.1 22.9----29.99- 77.0 73.9----
2024-04-14 01:18 pm SE 20.0 25.1----30.00- 76.5 73.9----
2024-04-14 01:12 pm SE 20.0 24.1----30.00- 77.2 73.9----
2024-04-14 01:06 pm SE 19.0 24.1----30.00- 76.8 73.9----
2024-04-14 01:00 pm SE 20.0 24.1----30.00-0.02 76.8 73.9----
2024-04-14 12:54 pm SE 17.1 22.0----30.01- 77.0 73.9----
2024-04-14 12:48 pmSSE 19.0 25.1----30.01- 77.9 73.9----
2024-04-14 12:42 pmSSE 21.0 24.1----30.01- 77.0 73.9----
2024-04-14 12:36 pmSSE 19.0 25.1----30.01- 77.4 73.9----
2024-04-14 12:30 pmSSE 17.1 22.0----30.01- 77.0 73.9----
2024-04-14 12:24 pmSSE 19.0 24.1----30.02- 77.2 73.9----
2024-04-14 12:18 pmSSE 19.0 22.9----30.01- 77.4 73.8----
2024-04-14 12:12 pmSSE 15.9 22.0----30.01- 78.6 73.8----
2024-04-14 12:06 pmSSE 17.1 25.1----30.01- 77.4 73.8----
2024-04-14 12:00 pmSSE 15.9 21.0----30.01+0.00 78.3 73.8----
2024-04-14 11:54 amSSE 15.9 22.0----30.01- 78.4 73.8----
2024-04-14 11:48 amSSE 18.1 22.0----30.01-- 73.8----
2024-04-14 11:42 amSSE 18.1 22.9----30.01-- 73.6----
2024-04-14 11:36 amSSE 17.1 21.0----30.02-- 73.6----
2024-04-14 11:30 amSSE 18.1 21.0----30.02-- 73.6----
2024-04-14 11:24 amSSE 15.9 22.0----30.02-- 73.6----
2024-04-14 11:18 amSSE 17.1 22.9----30.02- 76.6 73.6----
2024-04-14 11:12 amSSE 15.9 22.0----30.03- 76.5 73.6----
2024-04-14 11:06 amSSE 17.1 21.0----30.03- 76.3 73.6----
2024-04-14 11:00 amSSE 15.9 21.0----30.03+0.02 76.3 73.6----
2024-04-14 10:54 amSSE 17.1 22.0----30.03- 76.3 73.6----
2024-04-14 10:48 amSSE 14.0 21.0----30.03- 76.8 73.6----
2024-04-14 10:42 amSSE 15.0 21.0----30.03- 77.4 73.6----
2024-04-14 10:36 amSSE 15.9 21.0----30.03- 76.6 73.6----
2024-04-14 10:30 amSSE 17.1 21.0----30.03-- 73.6----
2024-04-14 10:24 amSSE 15.0 18.1----30.03-- 73.6----
2024-04-14 10:18 amSSE 15.0 21.0----30.03-- 73.6----
2024-04-14 10:12 amSSE 18.1 22.0----30.03-- 73.6----
2024-04-14 10:06 amSSE 18.1 22.0----30.02-- 73.6----
2024-04-14 10:00 amSSE 17.1 21.0----30.02+0.03 76.6 73.4----
2024-04-14 09:54 amSSE 15.9 21.0----30.02- 76.3 73.4----